{"data":{"norad_id":63093,"intl_designator":"2025-037S","name":"STARLINK-32900","alt_names":[],"object_type":"PAYLOAD","status":"ACTIVE","operator":null,"country":"US","launch_date":"2025-02-23","launch_site_code":"AFWTR","launch_vehicle":null,"mission":null,"orbit_class":"UNKNOWN","rcs_meters":null,"size_class":null,"mass_kg":null,"dimensions":null,"purposes":["comms"],"wikipedia_slug":null,"has_3d_model":false,"image_url":null,"decayed_at":null,"tle_current":{"epoch":"2026-05-25T03:12:53.470080Z","epoch_age_seconds":63820,"freshness":"FRESH","line1":"1 63093U 25037S   26145.13395220  .00001438  00000+0  12824-3 0  9996","line2":"2 63093  70.0004 161.6711 0004078 270.1470  89.9222 14.98342139 69918","mean_motion":14.98342139,"eccentricity":0.0004078,"inclination_deg":70.0004,"raan_deg":161.6711,"arg_perigee_deg":270.147,"mean_anomaly_deg":89.9222,"bstar":0.00012824,"rev_number":6991,"period_min":96.10622050322,"perigee_km":569.18407898902,"apogee_km":574.85262569439,"semimajor_km":6950.1553523417,"source":"CELESTRAK","updated_at":"2026-05-25T13:38:19.880433Z"}}}